| time (UTC) | temp C | wind direction | speed KPH | gust KPH | rain 1hr cm | rain 24hr cm | rain mn cm | humidity % | barometer mb |
| 20260510160044 | 25 | 167 | 6.4 | 14.5 | 0.00 | 0.00 | 0.00 | 81 | 989.5 |
| 20260510154523 | 24 | 141 | 4.8 | 12.9 | 0.00 | 0.00 | 0.00 | 81 | 989.5 |
| 20260510153024 | 23 | 154 | 6.4 | 16.1 | 0.00 | 0.00 | 0.00 | 79 | 989.4 |
| 20260510151505 | 23 | 117 | 4.8 | 17.7 | 0.00 | 0.00 | 0.00 | 78 | 989.3 |
| 20260510150006 | 22 | 119 | 6.4 | 12.9 | 0.00 | 0.00 | 0.00 | 76 | 989.3 |
| 20260510144551 | 22 | 153 | 4.8 | 14.5 | 0.00 | 0.00 | 0.00 | 74 | 989.2 |
| 20260510143058 | 22 | 98 | 6.4 | 12.9 | 0.00 | 0.00 | 0.00 | 73 | 989.1 |
| 20260510141526 | 22 | 136 | 4.8 | 14.5 | 0.00 | 0.00 | 0.00 | 71 | 989.1 |
| 20260510140024 | 22 | 112 | 3.2 | 9.7 | 0.00 | 0.00 | 0.00 | 70 | 988.9 |
| 20260510134505 | 21 | 124 | 3.2 | 11.3 | 0.00 | 0.00 | 0.00 | 69 | 988.6 |
| 20260510133002 | 21 | 119 | 3.2 | 9.7 | 0.00 | 0.00 | 0.00 | 69 | 988.4 |
| 20260510131546 | 20 | 137 | 4.8 | 11.3 | 0.00 | 0.00 | 0.00 | 69 | 988.2 |
| 20260510130040 | 20 | 155 | 0.0 | 8.0 | 0.00 | 0.00 | 0.00 | 70 | 987.8 |
| 20260510124530 | 20 | 157 | 3.2 | 8.0 | 0.00 | 0.00 | 0.00 | 71 | 987.4 |
| 20260510123019 | 20 | 192 | 0.0 | 0.0 | 0.00 | 0.00 | 0.00 | 72 | 987.4 |
| 20260510121559 | 19 | 195 | 0.0 | 0.0 | 0.00 | 0.00 | 0.00 | 72 | 987.1 |
| 20260510120057 | 19 | 195 | 0.0 | 1.6 | 0.00 | 0.00 | 0.00 | 74 | 986.7 |
| 20260510114543 | 19 | 196 | 0.0 | 6.4 | 0.00 | 0.05 | 0.00 | 74 | 986.4 |
| 20260510113033 | 19 | 202 | 3.2 | 9.7 | 0.00 | 0.05 | 0.00 | 74 | 986.1 |
| 20260510111514 | 20 | 223 | 6.4 | 12.9 | 0.00 | 0.05 | 0.00 | 75 | 985.9 |
| 20260510110014 | 20 | 232 | 6.4 | 11.3 | 0.00 | 0.05 | 0.00 | 75 | 986.0 |
| 20260510104555 | 20 | 220 | 4.8 | 9.7 | 0.00 | 0.05 | 0.00 | 75 | 985.8 |
| 20260510103054 | 20 | 227 | 3.2 | 6.4 | 0.00 | 0.05 | 0.00 | 76 | 985.8 |
| 20260510101535 | 20 | 240 | 4.8 | 8.0 | 0.00 | 0.05 | 0.00 | 76 | 985.7 |
| 20260510100054 | 20 | 221 | 6.4 | 9.7 | 0.00 | 0.05 | 0.00 | 76 | 985.5 |
| 20260510094517 | 20 | 211 | 3.2 | 14.5 | 0.00 | 0.05 | 0.00 | 75 | 985.5 |
| 20260510093017 | 20 | 223 | 6.4 | 14.5 | 0.00 | 0.05 | 0.00 | 76 | 985.1 |
| 20260510091614 | 20 | 220 | 4.8 | 12.9 | 0.00 | 0.05 | 0.00 | 76 | 985.0 |
| 20260510084611 | 20 | 237 | 8.0 | 16.1 | 0.00 | 0.05 | 0.00 | 76 | 985.1 |
| 20260510083035 | 20 | 221 | 4.8 | 12.9 | 0.00 | 0.05 | 0.00 | 77 | 985.1 |
| 20260510081547 | 20 | 221 | 4.8 | 9.7 | 0.00 | 0.05 | 0.00 | 77 | 985.3 |
| 20260510080025 | 20 | 198 | 1.6 | 8.0 | 0.00 | 0.05 | 0.00 | 79 | 985.6 |
| 20260510074514 | 20 | 230 | 3.2 | 8.0 | 0.00 | 0.05 | 0.00 | 79 | 985.6 |
| 20260510073104 | 20 | 208 | 0.0 | 6.4 | 0.00 | 0.05 | 0.00 | 80 | 985.7 |
| 20260510071556 | 20 | 219 | 4.8 | 8.0 | 0.00 | 0.05 | 0.00 | 80 | 985.6 |
| 20260510070044 | 20 | 205 | 3.2 | 12.9 | 0.00 | 0.05 | 0.00 | 80 | 985.6 |
| 20260510064537 | 20 | 180 | 4.8 | 11.3 | 0.00 | 0.05 | 0.00 | 81 | 985.8 |
| 20260510063018 | 20 | 197 | 1.6 | 6.4 | 0.00 | 0.05 | 0.00 | 80 | 985.5 |
| 20260510061516 | 20 | 198 | 1.6 | 8.0 | 0.00 | 0.05 | 0.00 | 80 | 985.6 |
| 20260510060058 | 20 | 208 | 3.2 | 9.7 | 0.00 | 0.05 | 0.00 | 79 | 985.6 |
| 20260510054556 | 21 | 163 | 0.0 | 0.0 | 0.00 | 0.05 | 0.00 | 78 | 985.4 |
| 20260510053039 | 21 | 158 | 0.0 | 0.0 | 0.00 | 0.05 | 0.00 | 77 | 985.3 |
| 20260510051542 | 21 | 156 | 0.0 | 0.0 | 0.00 | 0.05 | 0.00 | 76 | 985.3 |
| 20260510050019 | 21 | 155 | 0.0 | 1.6 | 0.00 | 0.05 | 0.00 | 77 | 985.3 |
| 20260510044528 | 21 | 153 | 0.0 | 0.0 | 0.00 | 0.05 | 0.00 | 78 | 985.5 |
| 20260510043110 | 21 | 153 | 0.0 | 0.0 | 0.00 | 0.05 | 0.00 | 78 | 985.6 |
| 20260510041555 | 22 | 153 | 0.0 | 0.0 | 0.00 | 0.05 | 0.00 | 78 | 985.6 |
| 20260510040037 | 22 | 153 | 0.0 | 0.0 | 0.00 | 0.05 | 0.00 | 78 | 985.5 |
| 20260510034542 | 22 | 152 | 0.0 | 0.0 | 0.00 | 0.05 | 0.00 | 79 | 985.3 |
| 20260510033015 | 22 | 152 | 0.0 | 0.0 | 0.00 | 0.05 | 0.00 | 80 | 985.2 |
| 20260510031513 | 22 | 152 | 0.0 | 0.0 | 0.00 | 0.05 | 0.00 | 80 | 985.0 |
| 20260510030100 | 23 | 151 | 0.0 | 0.0 | 0.00 | 0.05 | 0.00 | 80 | 984.9 |
| 20260510024552 | 23 | 151 | 0.0 | 0.0 | 0.00 | 0.05 | 0.00 | 81 | 984.8 |
| 20260510023033 | 23 | 150 | 0.0 | 0.0 | 0.00 | 0.05 | 0.00 | 81 | 984.4 |
| 20260510021527 | 24 | 151 | 0.0 | 3.2 | 0.00 | 0.05 | 0.00 | 81 | 984.2 |
| 20260510020006 | 25 | 150 | 0.0 | 0.0 | 0.00 | 0.05 | 0.00 | 81 | 983.9 |
| 20260510014505 | 25 | 150 | 0.0 | 0.0 | 0.00 | 0.05 | 0.00 | 81 | 983.6 |
| 20260510013043 | 25 | 150 | 0.0 | 0.0 | 0.00 | 0.05 | 0.00 | 81 | 983.6 |
| 20260510011543 | 26 | 150 | 0.0 | 0.0 | 0.00 | 0.05 | 0.00 | 80 | 983.4 |
| 20260510010019 | 27 | 150 | 0.0 | 0.0 | 0.00 | 0.05 | 0.00 | 79 | 983.4 |
| 20260510004514 | 27 | 150 | 0.0 | 0.0 | 0.00 | 0.05 | 0.00 | 76 | 983.3 |
| 20260510003054 | 28 | 150 | 0.0 | 0.0 | 0.00 | 0.05 | 0.00 | 74 | 983.2 |
| 20260510001550 | 28 | 150 | 0.0 | 0.0 | 0.00 | 0.05 | 0.00 | 72 | 983.1 |
| 20260510000054 | 29 | 151 | 0.0 | 0.0 | 0.00 | 0.05 | 0.00 | 70 | 983.0 |
| 20260509234544 | 29 | 153 | 0.0 | 0.0 | 0.00 | 0.05 | 0.00 | 69 | 982.9 |
| 20260509233012 | 30 | 155 | 0.0 | 0.0 | 0.00 | 0.05 | 0.00 | 65 | 982.8 |
| 20260509231507 | 30 | 149 | 0.0 | 0.0 | 0.00 | 0.05 | 0.00 | 67 | 982.7 |
| 20260509230045 | 30 | 150 | 0.0 | 0.0 | 0.00 | 0.05 | 0.00 | 66 | 982.8 |
| 20260509224544 | 30 | 131 | 0.0 | 0.0 | 0.00 | 0.05 | 0.05 | 62 | 982.8 |
| 20260509223027 | 30 | 131 | 0.0 | 0.0 | 0.00 | 0.05 | 0.05 | 63 | 982.7 |
| 20260509221527 | 30 | 173 | 0.0 | 0.0 | 0.00 | 0.05 | 0.05 | 64 | 982.7 |
| 20260509220007 | 30 | 109 | 0.0 | 0.0 | 0.00 | 0.05 | 0.05 | 61 | 982.7 |
| 20260509214506 | 30 | 114 | 0.0 | 6.4 | 0.00 | 0.05 | 0.05 | 63 | 982.8 |
| 20260509213046 | 30 | 154 | 1.6 | 8.0 | 0.00 | 0.05 | 0.05 | 64 | 983.1 |
| 20260509211545 | 30 | 153 | 4.8 | 12.9 | 0.00 | 0.05 | 0.05 | 64 | 983.2 |
| 20260509210031 | 30 | 114 | 0.0 | 4.8 | 0.00 | 0.05 | 0.05 | 62 | 983.5 |
| 20260509204526 | 30 | 144 | 3.2 | 8.0 | 0.00 | 0.05 | 0.05 | 64 | 983.8 |
| 20260509203004 | 29 | 161 | 1.6 | 8.0 | 0.00 | 0.05 | 0.05 | 65 | 983.9 |
| 20260509201503 | 29 | 79 | 0.0 | 9.7 | 0.00 | 0.05 | 0.05 | 66 | 984.1 |
| 20260509194544 | 28 | 49 | 4.8 | 14.5 | 0.00 | 0.05 | 0.05 | 68 | 984.5 |
| 20260509193027 | 28 | 65 | 0.0 | 9.7 | 0.00 | 0.05 | 0.05 | 71 | 984.6 |
| 20260509191526 | 28 | 56 | 3.2 | 11.3 | 0.00 | 0.05 | 0.05 | 73 | 984.7 |
| 20260509190006 | 28 | 62 | 6.4 | 11.3 | 0.00 | 0.05 | 0.05 | 72 | 985.0 |
| 20260509184502 | 28 | 51 | 0.0 | 11.3 | 0.00 | 0.05 | 0.05 | 74 | 985.1 |
| 20260509183047 | 27 | 52 | 0.0 | 9.7 | 0.00 | 0.05 | 0.05 | 77 | 985.3 |
| 20260509181550 | 27 | 74 | 1.6 | 6.4 | 0.00 | 0.05 | 0.05 | 76 | 985.4 |
| 20260509180044 | 27 | 133 | 0.0 | 4.8 | 0.00 | 0.05 | 0.05 | 77 | 985.6 |
| 20260509174541 | 27 | 76 | 4.8 | 12.9 | 0.00 | 0.05 | 0.05 | 79 | 985.6 |
| 20260509173039 | 26 | 25 | 8.0 | 16.1 | 0.00 | 0.05 | 0.05 | 80 | 985.8 |
| 20260509171536 | 25 | 25 | 6.4 | 16.1 | 0.00 | 0.05 | 0.05 | 81 | 985.9 |
| 20260509170039 | 25 | 55 | 11.3 | 17.7 | 0.00 | 0.05 | 0.05 | 80 | 986.0 |
| 20260509164536 | 25 | 45 | 14.5 | 19.3 | 0.00 | 0.05 | 0.05 | 81 | 986.2 |
| 20260509163035 | 25 | 131 | 0.0 | 9.7 | 0.00 | 0.05 | 0.05 | 80 | 986.2 |
| 20260509161534 | 25 | 197 | 4.8 | 11.3 | 0.00 | 0.05 | 0.05 | 78 | 986.2 |